User: anonymous   Login
Location: Unspecified
(0.0000°N, 0.0000°E)
Time: 13:42:42
(UTC+00:00)
Language:

Skynet 4D - Orbit

View from above orbital plane
View from above orbital plane
View from above satellite
View from above satellite

Ground track
Ground track

The orbit data is extracted from the following two-line orbital elements,

1 25134U 98002A   18171.44673028 -.00000328 +00000-0 +00000-0 0  9990
2 25134 010.8602 028.5238 0002859 072.3129 111.8705 00.99156351074430
Epoch (UTC): 20 June 2018 10:43:17
Eccentricity: 0.0002859
inclination: 10.8602°
perigee height: 36089 km
apogee height: 36114 km
right ascension of ascending node: 28.5238°
argument of perigee: 72.3129°
revolutions per day: 0.99156351
mean anomaly at epoch: 111.8705°
orbit number at epoch: 7443

The dashed part of the orbit path shows where the satellite is in the earth's shadow,  

DLR